Location: Santa Clara
(37.3540°N, 121.9540°W)
Time: 01:13:40
(UTC-07:00)

Hubble Space Telescope - Pass Details

Date: 25 May 2024
Orbit: 511 x 514 km, 28.5° (Epoch: 13 June)

Event Time Altitude Azimuth Distance (km) Brightness Sun altitude
Rises 20:55:00 0° 212° (SSW) 2,604 4.3 -7.1°
Reaches altitude 10° 20:59:08 10° 171° (S) 1,720 2.9 -7.7°
Maximum altitude 20:59:50 10° 160° (SSE) 1,696 2.8 -7.9°
Drops below altitude 10° 21:00:33 10° 150° (SSE) 1,720 2.8 -8.0°
Enters shadow 21:01:06 - 142° (SE) 1,773 2.8 -8.1°
